Regional Weather Roundup
Issued by NWS

Home | Current Version | Previous Version | Text Only | Print | Product List | Glossary On
Versions: 1 2 3 4 5 6 7 8 9 10 11 12 13 14 15 16 17 18 19 20 21 22 23 24 25 26 27
000
ASUS44 KBMX 262310
RWRAL

ALABAMA REGIONAL WEATHER ROUNDUP
NATIONAL WEATHER SERVICE BIRMINGHAM AL
600 PM CDT THU MAY 26 2016

NOTE: "FAIR" INDICATES FEW OR NO CLOUDS BELOW 12,000 FEET
WITH NO SIGNIFICANT WEATHER AND/OR OBSTRUCTIONS TO VISIBILITY.

THE REMARK "TC" DENOTES TEMPERATURE IN DEGREES CELSIUS.

ALZ001>011-014-016>018-020-270000-
NORTH ALABAMA

CITY           SKY/WX    TMP DP  RH WIND       PRES   REMARKS
MUSCLE SHOALS  SUNNY     89  58  34 S12       30.00F
HUNTSVILLE     MOSUNNY   90  57  32 S13       30.01F
DECATUR        SUNNY     87  59  38 S12       30.01F
HALEYVILLE     FAIR      86  61  42 S10       30.04F
GADSDEN        SUNNY     86  64  47 SW5       30.05S
$$

ALZ012-013-022-023-030>036-040>044-270000-
WEST CENTRAL ALABAMA

CITY           SKY/WX    TMP DP  RH WIND       PRES   REMARKS
TUSCALOOSA     SUNNY     86  59  39 S8        30.01F
$$

ALZ015-024>027-033>036-040>044-270000-
CENTRAL ALABAMA

CITY           SKY/WX    TMP DP  RH WIND       PRES   REMARKS
BIRMINGHAM     MOSUNNY   87  63  44 SE9       30.06F
MONTGOMERY     MOSUNNY   88  63  43 SE8       30.05S
SHELBY CO ARPT MOSUNNY   87  59  38 S8        30.05S
MAXWELL AFB    SUNNY     87  63  44 S8        30.04F
GREENVILLE     FAIR      87  62  43 SE7       30.04F
$$

ALZ019-021-028-029-037-038-045>048-270000-
EAST CENTRAL ALABAMA

CITY           SKY/WX    TMP DP  RH WIND       PRES   REMARKS
ANNISTON       MOSUNNY   86  60  41 SW8       30.06R
ALEXANDER CITY MOSUNNY   88  71  56 S8        30.08R HX  93
AUBURN         MOSUNNY  N/A N/A N/A SW10      30.08S
$$

ALZ051>064-270000-
SOUTHWEST ALABAMA

CITY           SKY/WX    TMP DP  RH WIND       PRES   REMARKS
MOBILE         PTSUNNY   82  69  64 S13       30.03F
BROOKLEY FIELD PTSUNNY   81  72  74 SE10      30.04F
EVERGREEN      MOSUNNY   84  65  52 S9        30.04F
$$

ALZ049-050-065>069-270000-
SOUTHEAST ALABAMA

CITY           SKY/WX    TMP DP  RH WIND       PRES   REMARKS
DOTHAN         CLOUDY    87  62  43 SW3       30.08F
OZARK          MOSUNNY   87  65  47 S8        30.04F
TROY           SUNNY     87  64  46 SW7       30.06S
EUFAULA        FAIR      89  62  40 S5        30.04F
$$




USA.gov is the U.S. government's official web portal to all federal, state and local government web resources and services.